Total_Precipitation_Accumulation
0.07 0.15 0.42 0.61 0.63 0.64 0.64 0.62 0.60 0.56 0.53 0.56 0.63 0.71 0.72 0.68 0.64 0.59 0.58 0.59 0.62 0.67 0.74 0.83 0.83 0.82 0.78 0.75 0.69 0.61 0.60 0.60 0.61 0.59 0.63 0.67 0.69 0.65 0.57 0.53 0.41 0.47 0.71
0.06 0.16 0.40 0.54 0.59 0.63 0.64 0.60 0.56 0.53 0.52 0.56 0.63 0.66 0.68 0.67 0.65 0.65 0.63 0.63 0.64 0.70 0.78 0.85 0.84 0.81 0.79 0.73 0.64 0.54 0.50 0.45 0.45 0.44 0.41 0.40 0.57 0.65 0.58 0.59 0.53 0.74 0.86
0.05 0.15 0.32 0.49 0.57 0.62 0.63 0.59 0.55 0.55 0.57 0.62 0.65 0.65 0.64 0.63 0.65 0.70 0.72 0.69 0.67 0.65 0.69 0.76 0.80 0.78 0.73 0.66 0.58 0.51 0.47 0.39 0.33 0.33 0.32 0.25 0.47 0.74 0.72 0.71 0.67 0.87 0.86
0.06 0.14 0.25 0.45 0.56 0.62 0.63 0.63 0.64 0.67 0.67 0.73 0.73 0.71 0.66 0.66 0.67 0.72 0.70 0.68 0.68 0.65 0.65 0.69 0.67 0.68 0.60 0.51 0.49 0.48 0.47 0.41 0.31 0.25 0.16 0.17 0.42 0.78 0.84 0.77 0.73 0.78 0.81
0.08 0.15 0.29 0.48 0.59 0.63 0.68 0.68 0.69 0.71 0.77 0.80 0.80 0.78 0.78 0.78 0.74 0.74 0.73 0.69 0.64 0.63 0.62 0.65 0.61 0.60 0.57 0.53 0.50 0.47 0.45 0.40 0.30 0.21 0.11 0.14 0.35 0.73 0.73 0.70 0.65 0.68 0.73
0.13 0.19 0.35 0.52 0.65 0.69 0.73 0.72 0.74 0.77 0.80 0.84 0.80 0.78 0.80 0.87 0.84 0.75 0.71 0.71 0.65 0.62 0.63 0.62 0.61 0.61 0.56 0.51 0.53 0.55 0.52 0.45 0.30 0.17 0.13 0.15 0.23 0.52 0.66 0.71 0.70 0.67 0.64
0.20 0.26 0.39 0.58 0.71 0.78 0.81 0.84 0.87 0.87 0.88 0.86 0.84 0.79 0.79 0.82 0.84 0.79 0.71 0.68 0.64 0.62 0.63 0.64 0.61 0.62 0.60 0.55 0.54 0.59 0.64 0.50 0.30 0.28 0.23 0.21 0.27 0.46 0.60 0.71 0.74 0.70 0.69
0.26 0.34 0.50 0.73 0.83 0.87 0.91 0.87 0.93 1.00 1.01 0.99 0.93 0.87 0.86 0.84 0.81 0.81 0.73 0.70 0.68 0.65 0.61 0.57 0.56 0.56 0.56 0.55 0.54 0.57 0.62 0.48 0.34 0.36 0.40 0.37 0.40 0.54 0.63 0.68 0.73 0.74 0.77
0.27 0.39 0.57 0.80 0.92 1.03 1.06 0.99 0.97 0.98 1.05 1.04 1.00 0.97 0.94 0.88 0.81 0.79 0.76 0.69 0.68 0.71 0.67 0.57 0.54 0.53 0.49 0.48 0.48 0.50 0.52 0.48 0.48 0.55 0.46 0.50 0.49 0.64 0.73 0.69 0.71 0.78 0.81
0.35 0.48 0.63 0.82 0.95 1.05 1.14 1.10 1.04 1.02 1.04 1.08 1.03 0.99 0.97 0.97 0.94 0.85 0.74 0.75 0.72 0.69 0.72 0.67 0.61 0.61 0.56 0.48 0.42 0.43 0.45 0.45 0.44 0.49 0.56 0.48 0.51 0.75 0.90 0.83 0.76 0.78 0.83
0.50 0.63 0.76 0.88 1.01 1.13 1.20 1.14 1.17 1.16 1.17 1.19 1.15 1.13 1.09 1.07 1.08 0.99 0.81 0.76 0.78 0.74 0.71 0.72 0.67 0.67 0.67 0.54 0.44 0.41 0.41 0.35 0.39 0.50 0.53 0.47 0.58 0.84 1.07 0.99 0.91 0.83 0.84
0.53 0.69 0.83 0.93 1.07 1.25 1.31 1.31 1.37 1.28 1.23 1.25 1.14 1.11 1.14 1.12 1.16 1.08 1.00 0.87 0.82 0.80 0.78 0.77 0.75 0.72 0.69 0.58 0.52 0.49 0.37 0.30 0.30 0.32 0.33 0.39 0.52 0.77 1.08 1.13 1.07 1.01 0.98
0.54 0.69 0.85 0.99 1.15 1.33 1.36 1.34 1.35 1.33 1.24 1.27 1.25 1.12 1.09 1.15 1.13 1.16 1.14 1.13 1.03 0.92 0.88 0.88 0.89 0.81 0.75 0.67 0.61 0.55 0.43 0.38 0.35 0.29 0.27 0.32 0.41 0.61 0.85 1.02 1.18 1.20 1.22
0.64 0.75 0.89 1.06 1.25 1.42 1.43 1.45 1.38 1.28 1.21 1.17 1.26 1.26 1.18 1.11 1.03 0.98 0.99 0.97 0.96 0.91 0.88 0.88 0.87 0.82 0.81 0.77 0.67 0.61 0.56 0.51 0.44 0.38 0.32 0.35 0.38 0.51 0.73 0.89 1.08 1.23 1.34
0.72 0.81 0.91 1.06 1.21 1.42 1.63 1.61 1.57 1.42 1.27 1.21 1.25 1.27 1.22 1.15 1.06 0.97 0.90 0.93 0.89 0.81 0.79 0.80 0.76 0.71 0.69 0.70 0.68 0.63 0.63 0.56 0.51 0.48 0.44 0.44 0.42 0.45 0.63 0.80 0.95 1.16 1.36
0.78 0.89 0.98 1.11 1.20 1.36 1.57 1.65 1.64 1.57 1.49 1.43 1.30 1.24 1.24 1.24 1.16 1.07 0.96 0.92 0.90 0.84 0.81 0.77 0.74 0.67 0.61 0.57 0.54 0.53 0.57 0.57 0.56 0.53 0.47 0.47 0.46 0.45 0.55 0.71 0.89 1.09 1.33
0.83 0.94 1.07 1.18 1.31 1.36 1.44 1.65 1.68 1.66 1.59 1.57 1.42 1.36 1.37 1.33 1.30 1.24 1.14 1.01 0.90 0.83 0.82 0.83 0.79 0.75 0.68 0.60 0.54 0.52 0.51 0.49 0.50 0.51 0.48 0.46 0.48 0.48 0.52 0.64 0.80 0.98 1.20
0.88 0.98 1.17 1.27 1.36 1.38 1.38 1.58 1.68 1.72 1.74 1.71 1.65 1.55 1.52 1.49 1.42 1.37 1.32 1.24 1.10 0.97 0.88 0.84 0.79 0.76 0.71 0.65 0.59 0.54 0.53 0.50 0.46 0.45 0.44 0.44 0.48 0.49 0.51 0.58 0.68 0.87 1.07
0.83 0.97 1.19 1.32 1.38 1.43 1.42 1.52 1.71 1.72 1.72 1.77 1.82 1.77 1.68 1.67 1.57 1.48 1.41 1.40 1.39 1.27 1.08 0.93 0.85 0.79 0.72 0.66 0.63 0.61 0.58 0.55 0.53 0.52 0.47 0.42 0.42 0.45 0.49 0.52 0.59 0.70 0.86
0.86 1.02 1.22 1.42 1.50 1.53 1.57 1.57 1.71 1.84 1.70 1.61 1.70 1.75 1.76 1.78 1.71 1.64 1.53 1.44 1.49 1.45 1.35 1.17 0.98 0.89 0.81 0.72 0.71 0.70 0.67 0.63 0.58 0.54 0.52 0.49 0.46 0.44 0.48 0.51 0.53 0.57 0.68
0.94 1.04 1.20 1.38 1.52 1.55 1.57 1.55 1.51 1.63 1.67 1.52 1.44 1.59 1.76 1.85 1.90 1.86 1.73 1.63 1.57 1.49 1.37 1.30 1.19 1.09 1.00 0.90 0.88 0.88 0.80 0.71 0.69 0.60 0.52 0.48 0.46 0.44 0.44 0.51 0.54 0.53 0.60
0.95 1.00 1.15 1.37 1.47 1.45 1.42 1.48 1.47 1.51 1.57 1.58 1.47 1.49 1.61 1.81 1.96 2.10 2.01 1.84 1.72 1.61 1.52 1.42 1.31 1.28 1.22 1.08 0.99 1.02 1.03 0.96 0.80 0.67 0.58 0.48 0.45 0.46 0.46 0.46 0.52 0.55 0.57
0.97 1.00 1.01 1.22 1.47 1.49 1.47 1.58 1.63 1.71 1.74 1.73 1.60 1.47 1.50 1.60 1.69 1.79 1.92 1.82 1.81 1.73 1.63 1.52 1.40 1.35 1.35 1.24 1.08 1.16 1.25 1.10 0.84 0.72 0.66 0.58 0.50 0.47 0.45 0.44 0.47 0.52 0.55
0.95 1.11 1.09 1.13 1.34 1.55 1.56 1.54 1.53 1.59 1.60 1.60 1.53 1.43 1.43 1.54 1.61 1.62 1.72 1.79 1.68 1.61 1.54 1.49 1.44 1.34 1.36 1.36 1.24 1.10 1.05 1.01 1.04 0.92 0.74 0.69 0.67 0.60 0.52 0.46 0.44 0.49 0.55
1.00 1.17 1.24 1.25 1.26 1.46 1.53 1.46 1.44 1.43 1.47 1.57 1.59 1.52 1.46 1.53 1.63 1.67 1.66 1.72 1.77 1.65 1.47 1.40 1.43 1.43 1.38 1.33 1.25 1.16 1.02 0.88 0.86 0.99 0.87 0.76 0.79 0.76 0.69 0.62 0.56 0.56 0.58
1.07 1.21 1.31 1.36 1.28 1.34 1.55 1.51 1.39 1.36 1.35 1.44 1.55 1.64 1.62 1.57 1.61 1.67 1.69 1.64 1.65 1.69 1.66 1.48 1.40 1.42 1.40 1.35 1.30 1.23 1.17 1.10 0.95 0.92 0.88 0.72 0.71 0.69 0.72 0.78 0.77 0.75 0.75